ASA563 PAJN-PANC

Flight info

Callsign ASA563
Flight time N/A
Altitude 34000
Route CHLKT2 ALATY JOH PTERS3
Aircraft B738/M-SDGIJ1LRWY/SB1

Departure

Time 2026-04-21 03:31
Airport Juneau International Airport (PAJN)

Arrival

Time N/A
Airport Ted Stevens Anchorage International Airport (PANC)
Time Latitude Longitude Altitude Speed Heading
2026-04-21 02:49 58.35843 -134.58432 6 ft 0 kts 47°
2026-04-21 03:19 58.35834 -134.58450 4 ft 2 kts 47°
2026-04-21 03:19 58.35824 -134.58472 4 ft 2 kts 47°
2026-04-21 03:20 58.35814 -134.58491 4 ft 2 kts 46°
2026-04-21 03:20 58.35806 -134.58514 4 ft 2 kts 69°
2026-04-21 03:20 58.35802 -134.58542 4 ft 2 kts 86°
2026-04-21 03:20 58.35803 -134.58565 4 ft 0 kts 102°
2026-04-21 03:21 58.35805 -134.58577 4 ft 1 kts 105°
2026-04-21 03:21 58.35805 -134.58578 4 ft 0 kts 105°
2026-04-21 03:24 58.35805 -134.58575 5 ft 1 kts 105°
2026-04-21 03:24 58.35798 -134.58527 5 ft 6 kts 104°
2026-04-21 03:24 58.35782 -134.58401 5 ft 10 kts 104°
2026-04-21 03:25 58.35738 -134.58307 5 ft 11 kts 166°
2026-04-21 03:25 58.35691 -134.58226 5 ft 10 kts 105°
2026-04-21 03:25 58.35668 -134.58061 5 ft 15 kts 104°
2026-04-21 03:25 58.35635 -134.57825 4 ft 21 kts 105°
2026-04-21 03:26 58.35593 -134.57533 4 ft 23 kts 105°
2026-04-21 03:26 58.35551 -134.57224 4 ft 24 kts 103°
2026-04-21 03:26 58.35510 -134.56926 3 ft 23 kts 104°
2026-04-21 03:26 58.35470 -134.56639 3 ft 22 kts 104°
2026-04-21 03:27 58.35430 -134.56357 2 ft 21 kts 105°
2026-04-21 03:27 58.35394 -134.56088 2 ft 20 kts 104°
2026-04-21 03:27 58.35358 -134.55830 1 ft 19 kts 104°
2026-04-21 03:27 58.35325 -134.55583 1 ft 18 kts 104°
2026-04-21 03:28 58.35294 -134.55365 1 ft 14 kts 109°
2026-04-21 03:28 58.35268 -134.55306 1 ft 0 kts 155°
2026-04-21 03:28 58.35265 -134.55304 1 ft 2 kts 155°
2026-04-21 03:29 58.35233 -134.55296 1 ft 6 kts 188°
2026-04-21 03:29 58.35197 -134.55287 1 ft 4 kts 172°
2026-04-21 03:29 58.35182 -134.55313 1 ft 2 kts 247°
2026-04-21 03:29 58.35180 -134.55339 1 ft 1 kts 268°
2026-04-21 03:30 58.35182 -134.55374 1 ft 3 kts 283°
2026-04-21 03:30 58.35188 -134.55425 1 ft 8 kts 283°
2026-04-21 03:30 58.35245 -134.55838 2 ft 64 kts 284°
2026-04-21 03:30 58.35412 -134.57033 3 ft 121 kts 284°
2026-04-21 03:31 58.35676 -134.58859 118 ft 156 kts 286°
2026-04-21 03:31 58.36000 -134.60669 652 ft 158 kts 279°
2026-04-21 03:31 58.36019 -134.62859 1108 ft 168 kts 264°
2026-04-21 03:31 58.35959 -134.64993 1698 ft 167 kts 266°
2026-04-21 03:32 58.35947 -134.67276 1938 ft 186 kts 268°
2026-04-21 03:32 58.35974 -134.69800 2305 ft 199 kts 272°
2026-04-21 03:32 58.36289 -134.72453 2708 ft 214 kts 286°
2026-04-21 03:32 58.36836 -134.75159 3103 ft 229 kts 289°
2026-04-21 03:33 58.37416 -134.78052 3612 ft 239 kts 287°
2026-04-21 03:33 58.37985 -134.81079 4099 ft 250 kts 286°
2026-04-21 03:33 58.38547 -134.84174 4725 ft 254 kts 286°
2026-04-21 03:33 58.39114 -134.87312 5416 ft 256 kts 287°
2026-04-21 03:34 58.39671 -134.90389 6169 ft 255 kts 287°
2026-04-21 03:34 58.40248 -134.93584 6845 ft 257 kts 287°
2026-04-21 03:34 58.40826 -134.96793 7534 ft 258 kts 287°
2026-04-21 03:34 58.41395 -134.99954 8235 ft 258 kts 287°
2026-04-21 03:35 58.41970 -135.03168 8909 ft 258 kts 287°
2026-04-21 03:35 58.42545 -135.06386 9515 ft 260 kts 287°
2026-04-21 03:35 58.43139 -135.09631 10128 ft 262 kts 290°
2026-04-21 03:35 58.43935 -135.12759 10540 ft 272 kts 298°
2026-04-21 03:36 58.44939 -135.15781 10876 ft 283 kts 302°
2026-04-21 03:36 58.46051 -135.18918 11201 ft 295 kts 302°
2026-04-21 03:36 58.47212 -135.22235 11532 ft 306 kts 301°
2026-04-21 03:36 58.48318 -135.25468 11911 ft 314 kts 301°
2026-04-21 03:37 58.49519 -135.29030 12507 ft 317 kts 301°
2026-04-21 03:37 58.50686 -135.32520 13248 ft 315 kts 300°
2026-04-21 03:37 58.51834 -135.35967 14003 ft 312 kts 300°
2026-04-21 03:37 58.52994 -135.39456 14678 ft 313 kts 300°
2026-04-21 03:38 58.54140 -135.42909 15259 ft 317 kts 300°
2026-04-21 03:38 58.55309 -135.46437 15858 ft 319 kts 300°
2026-04-21 03:38 58.56496 -135.50021 16415 ft 323 kts 300°
2026-04-21 03:38 58.57442 -135.52887 16861 ft 326 kts 300°
2026-04-21 03:39 58.58617 -135.56447 17480 ft 327 kts 300°
2026-04-21 03:39 58.59838 -135.60147 18042 ft 330 kts 300°
2026-04-21 03:39 58.61051 -135.63831 18579 ft 333 kts 299°
2026-04-21 03:39 58.62245 -135.67461 19118 ft 335 kts 298°
2026-04-21 03:40 58.63454 -135.71140 19645 ft 338 kts 298°
2026-04-21 03:40 58.64689 -135.74904 20254 ft 339 kts 298°
2026-04-21 03:40 58.65946 -135.78748 20727 ft 343 kts 298°
2026-04-21 03:40 58.67207 -135.82606 21259 ft 346 kts 298°
2026-04-21 03:41 58.68435 -135.86374 21798 ft 347 kts 298°
2026-04-21 03:41 58.69725 -135.90335 22286 ft 350 kts 298°
2026-04-21 03:41 58.71003 -135.94267 22766 ft 352 kts 298°
2026-04-21 03:41 58.72277 -135.98192 23292 ft 353 kts 298°
2026-04-21 03:42 58.73587 -136.02234 23749 ft 356 kts 298°
2026-04-21 03:42 58.74872 -136.06206 24220 ft 358 kts 298°
2026-04-21 03:42 58.76193 -136.10300 24580 ft 362 kts 298°
2026-04-21 03:42 58.77518 -136.14412 25036 ft 364 kts 298°
2026-04-21 03:43 58.78757 -136.18265 25448 ft 365 kts 298°
2026-04-21 03:43 58.80128 -136.22533 25866 ft 368 kts 298°
2026-04-21 03:43 58.81461 -136.26688 26324 ft 369 kts 298°
2026-04-21 03:43 58.82807 -136.30894 26605 ft 374 kts 298°
2026-04-21 03:44 58.84172 -136.35169 26935 ft 377 kts 298°
2026-04-21 03:44 58.85512 -136.39365 27348 ft 378 kts 299°
2026-04-21 03:44 58.86898 -136.43712 27721 ft 380 kts 298°
2026-04-21 03:44 58.88271 -136.48030 28069 ft 382 kts 298°
2026-04-21 03:45 58.89623 -136.52293 28259 ft 388 kts 298°
2026-04-21 03:45 58.91027 -136.56729 28671 ft 388 kts 299°
2026-04-21 03:45 58.92427 -136.61153 28986 ft 390 kts 298°
2026-04-21 03:45 58.93776 -136.65428 29202 ft 394 kts 298°
2026-04-21 03:46 58.95203 -136.69957 29626 ft 393 kts 298°
2026-04-21 03:46 58.96629 -136.74492 29771 ft 399 kts 298°
2026-04-21 03:46 58.98047 -136.79013 30087 ft 400 kts 298°
2026-04-21 03:46 58.99488 -136.83611 30388 ft 400 kts 298°
2026-04-21 03:47 59.00846 -136.87952 30797 ft 397 kts 298°
2026-04-21 03:47 59.02282 -136.92552 31084 ft 398 kts 298°
2026-04-21 03:47 59.03716 -136.97160 31312 ft 399 kts 298°
2026-04-21 03:47 59.05129 -137.01709 31413 ft 403 kts 298°
2026-04-21 03:48 59.06575 -137.06375 31611 ft 404 kts 298°
2026-04-21 03:48 59.08002 -137.10985 31822 ft 404 kts 298°
2026-04-21 03:48 59.09425 -137.15593 32018 ft 404 kts 298°
2026-04-21 03:48 59.10804 -137.20064 32200 ft 404 kts 298°
2026-04-21 03:49 59.12187 -137.24554 32397 ft 403 kts 298°
2026-04-21 03:49 59.13561 -137.29030 32517 ft 406 kts 298°
2026-04-21 03:49 59.15010 -137.33758 32624 ft 408 kts 298°
2026-04-21 03:49 59.16472 -137.38547 32749 ft 410 kts 298°
2026-04-21 03:50 59.17871 -137.43132 32891 ft 411 kts 298°
2026-04-21 03:50 59.19327 -137.47914 33025 ft 412 kts 298°
2026-04-21 03:50 59.20777 -137.52684 33174 ft 412 kts 298°
2026-04-21 03:50 59.22201 -137.57379 33341 ft 412 kts 298°
2026-04-21 03:51 59.23672 -137.62234 33499 ft 413 kts 298°
2026-04-21 03:51 59.24973 -137.66539 33615 ft 414 kts 297°
2026-04-21 03:51 59.26494 -137.71582 33768 ft 414 kts 297°
2026-04-21 03:51 59.27968 -137.76483 33785 ft 416 kts 297°
2026-04-21 03:52 59.30353 -137.84425 33828 ft 411 kts 297°